Change the Weather History Date:

Sunday, December 16, 2012

  Actual Average Record
Temperature  
Mean Temperature 32 °F -  
Max Temperature 35 °F 36 °F 51 °F (1954)
Min Temperature 28 °F 27 °F -4 °F (1964)
Degree Days  
Heating Degree Days 34    
Moisture  
Dew Point 29 °F    
Average Humidity 82    
Maximum Humidity 87    
Minimum Humidity 75    
Precipitation  
Precipitation 0.03 in - - ()
Sea Level Pressure  
Sea Level Pressure 29.26 in    
Wind  
Wind Speed 7 mph (ESE)    
Max Wind Speed 16 mph    
Max Gust Speed 20 mph    
Visibility 9 miles    
Events      
Averages and records for this station are not official NWS values.
T = Trace of Precipitation, MM = Missing Value Source: NWS Daily Summary

Daily Weather History Graph

Daily Weather History Graph

Search for Another Location

Airport or City:

Trip Planner

Search our weather history database for the weather conditions in past years. The results will help you decide how hot, cold, wet, or windy it might be!

Date:

Astronomy

Dec. 16, 2012 Rise Set
Actual Time 8:19 AM AKST 3:11 PM AKST
Civil Twilight 7:31 AM AKST 3:59 PM AKST
Nautical Twilight 6:41 AM AKST 4:49 PM AKST
Astronomical Twilight 5:55 AM AKST 5:35 PM AKST
Moon 10:18 AM AKST (12/16) 8:17 PM AKST (12/16)
Length of Visible Light 8h 28m
Length of Day
6h 51m
Waxing Crescent, 17% of the Moon is Illuminated
Dec 16
Waxing Crescent
Dec 19
First Quarter
Dec 28
Full
Jan 4
Last Quarter
Jan 11
New

Hourly Weather History & Observations

Time (AKST) Temp. Windchill Dew Point Humidity Pressure Visibility Wind Dir Wind Speed Gust Speed Precip Events Conditions
12:16 AM 33.8 °F 29.6 °F 28.4 °F 81% 29.28 in 10.0 mi South 4.6 mph - N/A   Overcast
12:36 AM 35.6 °F 29.2 °F 30.2 °F 81% 29.28 in 10.0 mi East 8.1 mph - N/A   Overcast
12:56 AM 32.0 °F 26.4 °F 28.4 °F 87% 29.28 in 10.0 mi SE 5.8 mph - N/A   Mostly Cloudy
1:16 AM 33.8 °F 29.6 °F 28.4 °F 81% 29.28 in 10.0 mi SSE 4.6 mph - N/A   Mostly Cloudy
1:36 AM 33.8 °F 26.4 °F 28.4 °F 81% 29.28 in 10.0 mi ESE 9.2 mph - N/A   Overcast
1:56 AM 35.6 °F 26.6 °F 30.2 °F 81% 29.27 in 10.0 mi East 13.8 mph - N/A   Overcast
2:16 AM 35.6 °F 27.5 °F 30.2 °F 81% 29.28 in 10.0 mi ESE 11.5 mph - N/A   Mostly Cloudy
2:36 AM 35.6 °F 27.5 °F 30.2 °F 81% 29.27 in 10.0 mi East 11.5 mph - N/A   Overcast
3:16 AM 33.8 °F 27.7 °F 28.4 °F 81% 29.28 in 10.0 mi SE 6.9 mph - N/A   Overcast
3:36 AM 35.6 °F 29.2 °F 30.2 °F 81% 29.27 in 10.0 mi ESE 8.1 mph - N/A   Overcast
3:56 AM 35.6 °F 32.8 °F 28.4 °F 75% 29.28 in 10.0 mi WSW 3.5 mph - N/A   Overcast
4:16 AM 33.8 °F - 28.4 °F 81% 29.27 in 10.0 mi Calm Calm - N/A   Overcast
4:36 AM 35.6 °F 29.2 °F 28.4 °F 75% 29.27 in 10.0 mi SSE 8.1 mph - N/A   Overcast
4:56 AM 35.6 °F 30.7 °F 28.4 °F 75% 29.27 in 10.0 mi SSE 5.8 mph - N/A   Overcast
5:16 AM 35.6 °F 32.8 °F 28.4 °F 75% 29.27 in 10.0 mi SSE 3.5 mph - N/A   Overcast
5:36 AM 33.8 °F - 28.4 °F 81% 29.27 in 10.0 mi Calm Calm - N/A   Mostly Cloudy
5:56 AM 33.8 °F - 28.4 °F 81% 29.27 in 10.0 mi Calm Calm - N/A   Mostly Cloudy
6:16 AM 33.8 °F 28.6 °F 28.4 °F 81% 29.26 in 10.0 mi SE 5.8 mph - N/A   Mostly Cloudy
6:36 AM 35.6 °F 30.7 °F 28.4 °F 75% 29.26 in 10.0 mi SE 5.8 mph - N/A   Mostly Cloudy
6:56 AM 35.6 °F 28.6 °F 30.2 °F 81% 29.26 in 10.0 mi East 9.2 mph - N/A   Mostly Cloudy
7:16 AM 35.6 °F 29.2 °F 30.2 °F 81% 29.25 in 10.0 mi East 8.1 mph - N/A   Mostly Cloudy
7:36 AM 35.6 °F 29.2 °F 30.2 °F 81% 29.25 in 10.0 mi East 8.1 mph - N/A   Mostly Cloudy
7:56 AM 35.6 °F 29.2 °F 30.2 °F 81% 29.25 in 10.0 mi East 8.1 mph - N/A   Mostly Cloudy
8:16 AM 33.8 °F 29.6 °F 28.4 °F 81% 29.26 in 10.0 mi ESE 4.6 mph - N/A   Mostly Cloudy
8:36 AM 35.6 °F 28.0 °F 30.2 °F 81% 29.26 in 10.0 mi East 10.4 mph - N/A   Mostly Cloudy
8:56 AM 35.6 °F 28.6 °F 30.2 °F 81% 29.26 in 10.0 mi East 9.2 mph - N/A   Overcast
9:16 AM 35.6 °F 29.2 °F 30.2 °F 81% 29.26 in 10.0 mi East 8.1 mph - N/A   Overcast
9:36 AM 33.8 °F 28.6 °F 28.4 °F 81% 29.27 in 10.0 mi SE 5.8 mph - N/A   Overcast
9:56 AM 33.8 °F - 28.4 °F 81% 29.27 in 3.0 mi Calm Calm - 0.01 in   Overcast
10:16 AM 33.8 °F 28.6 °F 28.4 °F 81% 29.27 in 3.0 mi SE 5.8 mph - N/A   Overcast
10:36 AM 33.8 °F 30.8 °F 28.4 °F 81% 29.27 in 3.0 mi South 3.5 mph - N/A   Overcast
10:56 AM 33.8 °F - 30.2 °F 87% 29.27 in 7.0 mi Calm Calm - N/A   Overcast
11:16 AM 33.8 °F 29.6 °F 28.4 °F 81% 29.27 in 7.0 mi South 4.6 mph - N/A   Overcast
11:36 AM 33.8 °F 25.8 °F 30.2 °F 87% 29.26 in 7.0 mi East 10.4 mph - N/A   Overcast
11:56 AM 33.8 °F - 28.4 °F 81% 29.26 in 7.0 mi Calm Calm - N/A   Overcast
12:16 PM 35.6 °F 28.6 °F 30.2 °F 81% 29.26 in 7.0 mi East 9.2 mph - N/A   Overcast
12:36 PM 33.8 °F 27.7 °F 30.2 °F 87% 29.26 in 7.0 mi ESE 6.9 mph - N/A   Overcast
12:56 PM 35.6 °F - 30.2 °F 81% 29.26 in 7.0 mi Calm Calm - N/A   Mostly Cloudy
1:16 PM 35.6 °F 32.8 °F 30.2 °F 81% 29.26 in 7.0 mi ENE 3.5 mph - N/A   Mostly Cloudy
1:36 PM 35.6 °F 30.7 °F 30.2 °F 81% 29.27 in 7.0 mi ESE 5.8 mph - N/A   Mostly Cloudy
1:56 PM 35.6 °F - 28.4 °F 75% 29.27 in 10.0 mi Calm Calm - N/A   Mostly Cloudy
2:16 PM 33.8 °F 27.0 °F 30.2 °F 87% 29.26 in 10.0 mi ESE 8.1 mph - N/A   Mostly Cloudy
2:36 PM 33.8 °F 23.5 °F 28.4 °F 81% 29.26 in 10.0 mi ESE 16.1 mph - N/A   Mostly Cloudy
2:56 PM 33.8 °F 23.9 °F 28.4 °F 81% 29.26 in 10.0 mi ESE 15.0 mph - N/A   Mostly Cloudy
3:16 PM 33.8 °F 24.8 °F 28.4 °F 81% 29.26 in 10.0 mi ESE 12.7 mph 19.6 mph N/A   Overcast
3:36 PM 33.8 °F 24.3 °F 30.2 °F 87% 29.26 in 10.0 mi East 13.8 mph - N/A   Overcast
3:56 PM 33.8 °F 25.3 °F 28.4 °F 81% 29.26 in 10.0 mi ESE 11.5 mph - N/A   Overcast
4:16 PM 33.8 °F 24.8 °F 30.2 °F 87% 29.26 in 10.0 mi East 12.7 mph 18.4 mph N/A   Overcast
4:36 PM 33.8 °F 26.4 °F 28.4 °F 81% 29.26 in 3.0 mi ESE 9.2 mph - N/A   Overcast
4:56 PM 33.8 °F 27.7 °F 28.4 °F 81% 29.26 in 3.0 mi ESE 6.9 mph - N/A   Overcast
5:16 PM 32.0 °F 26.4 °F 28.4 °F 87% 29.26 in 3.0 mi East 5.8 mph - N/A   Overcast
5:36 PM 32.0 °F 23.0 °F 28.4 °F 87% 29.25 in 3.0 mi East 11.5 mph - N/A   Overcast
5:56 PM 33.8 °F 26.4 °F 28.4 °F 81% 29.26 in 3.0 mi ESE 9.2 mph - N/A   Mostly Cloudy
6:16 PM 33.8 °F 29.6 °F 28.4 °F 81% 29.26 in 3.0 mi East 4.6 mph - 0.01 in   Mostly Cloudy
6:36 PM 33.8 °F 27.0 °F 28.4 °F 81% 29.25 in 3.0 mi East 8.1 mph - 0.01 in   Mostly Cloudy
6:56 PM 33.8 °F 27.7 °F 28.4 °F 81% 29.25 in 10.0 mi East 6.9 mph - 0.01 in   Overcast
7:16 PM 33.8 °F 27.7 °F 28.4 °F 81% 29.25 in 10.0 mi East 6.9 mph - 0.01 in   Overcast
7:36 PM 33.8 °F 27.7 °F 28.4 °F 81% 29.25 in 10.0 mi East 6.9 mph - 0.01 in   Overcast
7:56 PM 33.8 °F 27.7 °F 28.4 °F 81% 29.25 in 10.0 mi East 6.9 mph - 0.01 in   Overcast
8:16 PM 33.8 °F 27.7 °F 28.4 °F 81% 29.24 in 10.0 mi East 6.9 mph - N/A   Overcast
8:36 PM 33.8 °F 27.7 °F 28.4 °F 81% 29.24 in 10.0 mi East 6.9 mph - N/A   Overcast
8:56 PM 33.8 °F 29.6 °F 28.4 °F 81% 29.24 in 10.0 mi South 4.6 mph - N/A   Partly Cloudy
9:16 PM 32.0 °F - 26.6 °F 80% 29.24 in 10.0 mi Calm Calm - N/A   Partly Cloudy
9:36 PM 30.2 °F 25.4 °F 26.6 °F 86% 29.24 in 10.0 mi South 4.6 mph - N/A   Partly Cloudy
9:56 PM 30.2 °F 24.3 °F 26.6 °F 86% 29.24 in 10.0 mi SSE 5.8 mph - N/A   Partly Cloudy
10:16 PM 30.2 °F 25.4 °F 24.8 °F 80% 29.24 in 10.0 mi SSE 4.6 mph - N/A   Partly Cloudy
10:36 PM 30.2 °F - 26.6 °F 86% 29.25 in 10.0 mi Calm Calm - N/A   Partly Cloudy
10:56 PM 30.2 °F 25.4 °F 26.6 °F 86% 29.24 in 10.0 mi South 4.6 mph - N/A   Partly Cloudy
11:16 PM 30.2 °F 25.4 °F 26.6 °F 86% 29.24 in 10.0 mi SSE 4.6 mph - N/A   Partly Cloudy
11:36 PM 28.4 °F 23.3 °F 24.8 °F 86% 29.24 in 10.0 mi South 4.6 mph - N/A   Clear
11:56 PM 28.4 °F 24.6 °F 24.8 °F 86% 29.24 in 10.0 mi SSE 3.5 mph - N/A   Partly Cloudy